18-12-2023, 00:00:08,    206,    0.5,    7.6,   0.00,   0.00, 1026.2,   84.3, -999.0
18-12-2023, 00:00:18,    207,    0.0,    7.5,   0.00,   0.00, 1026.1,   84.5, -999.0
18-12-2023, 00:00:28,    204,    0.2,    7.4,   0.00,   0.00, 1026.1,   84.7, -999.0
18-12-2023, 00:00:38,    204,    0.2,    7.5,   0.00,   0.00, 1026.1,   84.6, -999.0
18-12-2023, 00:00:48,    203,    0.0,    7.5,   0.00,   0.00, 1026.1,   84.5, -999.0
18-12-2023, 00:00:58,    190,    1.2,    7.5,   0.00,   0.00, 1026.1,   84.4, -999.0
18-12-2023, 00:01:08,    160,    1.6,    7.6,   0.00,   0.00, 1026.1,   84.1, -999.0
18-12-2023, 00:01:18,    210,    0.9,    7.6,   0.00,   0.00, 1026.2,   83.9, -999.0
18-12-2023, 00:01:28,    202,    0.2,    7.6,   0.00,   0.00, 1026.1,   83.7, -999.0
18-12-2023, 00:01:38,    218,    0.9,    7.5,   0.00,   0.00, 1026.1,   83.7, -999.0
18-12-2023, 00:01:48,    214,    2.6,    7.6,   0.00,   0.00, 1026.2,   84.0, -999.0
18-12-2023, 00:01:58,    205,    1.5,    7.6,   0.00,   0.00, 1026.2,   84.0, -999.0
18-12-2023, 00:02:08,    208,    0.0,    7.5,   0.00,   0.00, 1026.1,   83.9, -999.0
18-12-2023, 00:02:18,    206,    0.0,    7.5,   0.00,   0.00, 1026.1,   83.7, -999.0
18-12-2023, 00:02:28,    187,    1.7,    7.5,   0.00,   0.00, 1026.1,   83.9, -999.0
18-12-2023, 00:02:38,    216,    3.0,    7.6,   0.00,   0.00, 1026.2,   83.7, -999.0
18-12-2023, 00:02:48,    222,    2.2,    7.6,   0.00,   0.00, 1026.2,   83.4, -999.0
18-12-2023, 00:02:58,    217,    0.9,    7.6,   0.00,   0.00, 1026.2,   83.3, -999.0
18-12-2023, 00:03:08,    246,    0.4,    7.6,   0.00,   0.00, 1026.1,   83.1, -999.0
18-12-2023, 00:03:18,    179,    0.8,    7.6,   0.00,   0.00, 1026.1,   83.1, -999.0
18-12-2023, 00:03:28,    192,    0.4,    7.6,   0.00,   0.00, 1026.1,   83.1, -999.0
18-12-2023, 00:03:38,    225,    2.1,    7.6,   0.00,   0.00, 1026.1,   83.3, -999.0
18-12-2023, 00:03:48,    217,    2.0,    7.6,   0.00,   0.00, 1026.1,   83.3, -999.0
18-12-2023, 00:03:58,    226,    0.7,    7.6,   0.00,   0.00, 1026.1,   82.9, -999.0
18-12-2023, 00:04:08,    235,    0.8,    7.6,   0.00,   0.00, 1026.1,   82.6, -999.0
18-12-2023, 00:04:18,    178,    0.8,    7.5,   0.00,   0.00, 1026.1,   82.9, -999.0
18-12-2023, 00:04:28,    175,    0.6,    7.6,   0.00,   0.00, 1026.1,   83.0, -999.0
18-12-2023, 00:04:38,    177,    0.2,    7.6,   0.00,   0.00, 1026.1,   82.6, -999.0
18-12-2023, 00:04:48,    181,    0.6,    7.7,   0.00,   0.00, 1026.1,   82.6, -999.0
18-12-2023, 00:04:58,    181,    0.0,    7.6,   0.00,   0.00, 1026.1,   82.3, -999.0
18-12-2023, 00:05:08,    195,    0.0,    7.6,   0.00,   0.00, 1026.1,   82.4, -999.0
18-12-2023, 00:05:18,    204,    0.8,    7.6,   0.00,   0.00, 1026.1,   82.5, -999.0
18-12-2023, 00:05:28,    220,    0.8,    7.6,   0.00,   0.00, 1026.1,   82.7, -999.0
18-12-2023, 00:05:38,    186,    1.0,    7.6,   0.00,   0.00, 1026.1,   82.6, -999.0
18-12-2023, 00:05:47,    219,    0.9,    7.6,   0.00,   0.00, 1026.1,   82.8, -999.0
18-12-2023, 00:05:58,    229,    0.2,    7.6,   0.00,   0.00, 1026.1,   82.7, -999.0
18-12-2023, 00:06:08,    206,    2.8,    7.6,   0.00,   0.00, 1026.1,   83.1, -999.0
18-12-2023, 00:06:18,    142,    1.6,    7.6,   0.00,   0.00, 1026.1,   83.4, -999.0
18-12-2023, 00:06:27,    146,    1.1,    7.6,   0.00,   0.00, 1026.0,   83.2, -999.0
18-12-2023, 00:06:38,    170,    1.3,    7.6,   0.00,   0.00, 1026.1,   83.1, -999.0
18-12-2023, 00:06:48,    205,    2.4,    7.7,   0.00,   0.00, 1026.1,   83.2, -999.0
18-12-2023, 00:06:57,    179,    1.6,    7.6,   0.00,   0.00, 1026.1,   83.2, -999.0
18-12-2023, 00:07:07,    210,    2.9,    7.6,   0.00,   0.00, 1026.1,   83.3, -999.0
18-12-2023, 00:07:18,    175,    1.3,    7.6,   0.00,   0.00, 1026.1,   83.2, -999.0
18-12-2023, 00:07:27,    175,    0.1,    7.6,   0.00,   0.00, 1026.0,   83.2, -999.0
18-12-2023, 00:07:37,    175,    0.0,    7.5,   0.00,   0.00, 1025.9,   83.4, -999.0
18-12-2023, 00:07:47,    162,    0.8,    7.6,   0.00,   0.00, 1026.0,   84.2, -999.0
18-12-2023, 00:07:58,    168,    1.2,    7.7,   0.00,   0.00, 1026.0,   84.2, -999.0
18-12-2023, 00:08:07,    179,    2.6,    7.7,   0.00,   0.00, 1026.1,   83.5, -999.0
18-12-2023, 00:08:17,    227,    2.2,    7.7,   0.00,   0.00, 1026.0,   82.7, -999.0
18-12-2023, 00:08:28,    187,    0.6,    7.6,   0.00,   0.00, 1026.0,   82.5, -999.0
18-12-2023, 00:08:37,    192,    0.0,    7.6,   0.00,   0.00, 1025.9,   82.0, -999.0
18-12-2023, 00:08:47,    232,    0.0,    7.5,   0.00,   0.00, 1025.9,   81.9, -999.0
18-12-2023, 00:08:57,    177,    0.2,    7.6,   0.00,   0.00, 1025.9,   81.9, -999.0
18-12-2023, 00:09:07,    173,    0.7,    7.6,   0.00,   0.00, 1026.1,   82.2, -999.0
18-12-2023, 00:09:17,    176,    0.2,    7.6,   0.00,   0.00, 1026.0,   81.8, -999.0
18-12-2023, 00:09:27,    181,    0.1,    7.6,   0.00,   0.00, 1025.9,   81.8, -999.0
18-12-2023, 00:09:37,    181,    0.2,    7.6,   0.00,   0.00, 1026.0,   81.7, -999.0
18-12-2023, 00:09:47,    181,    0.0,    7.5,   0.00,   0.00, 1025.9,   81.8, -999.0
18-12-2023, 00:09:57,    184,    0.2,    7.6,   0.00,   0.00, 1025.9,   82.0, -999.0
18-12-2023, 00:10:07,    184,    0.0,    7.6,   0.00,   0.00, 1025.9,   82.2, -999.0
18-12-2023, 00:10:17,    184,    0.3,    7.6,   0.00,   0.00, 1025.9,   82.3, -999.0
18-12-2023, 00:10:27,    183,    0.0,    7.6,   0.00,   0.00, 1025.9,   82.1, -999.0
18-12-2023, 00:10:37,    171,    0.1,    7.5,   0.00,   0.00, 1025.9,   82.0, -999.0
18-12-2023, 00:10:47,    180,    0.3,    7.5,   0.00,   0.00, 1025.9,   82.0, -999.0
18-12-2023, 00:10:57,    180,    0.0,    7.5,   0.00,   0.00, 1025.9,   81.7, -999.0
18-12-2023, 00:11:07,    177,    0.2,    7.6,   0.00,   0.00, 1026.0,   82.3, -999.0
18-12-2023, 00:11:17,    216,    0.9,    7.6,   0.00,   0.00, 1026.0,   82.8, -999.0
18-12-2023, 00:11:27,    235,    1.0,    7.6,   0.00,   0.00, 1026.0,   82.9, -999.0
18-12-2023, 00:11:37,    213,    1.5,    7.6,   0.00,   0.00, 1026.0,   82.9, -999.0
18-12-2023, 00:11:47,    207,    1.7,    7.6,   0.00,   0.00, 1026.0,   83.3, -999.0
18-12-2023, 00:11:57,    155,    0.9,    7.6,   0.00,   0.00, 1025.9,   83.2, -999.0
18-12-2023, 00:12:07,    155,    0.3,    7.6,   0.00,   0.00, 1025.9,   83.1, -999.0
18-12-2023, 00:12:17,    201,    0.5,    7.5,   0.00,   0.00, 1025.9,   83.3, -999.0
18-12-2023, 00:12:27,    225,    2.4,    7.6,   0.00,   0.00, 1026.0,   83.5, -999.0
18-12-2023, 00:12:37,    173,    1.3,    7.6,   0.00,   0.00, 1026.0,   83.1, -999.0
18-12-2023, 00:12:47,    173,    0.4,    7.5,   0.00,   0.00, 1026.0,   83.2, -999.0
18-12-2023, 00:12:57,    176,    0.7,    7.7,   0.00,   0.00, 1026.0,   83.5, -999.0
18-12-2023, 00:13:07,    175,    0.1,    7.5,   0.00,   0.00, 1025.9,   83.5, -999.0
18-12-2023, 00:13:17,    217,    0.1,    7.5,   0.00,   0.00, 1025.8,   83.7, -999.0
18-12-2023, 00:13:27,    141,    0.7,    7.6,   0.00,   0.00, 1025.9,   84.0, -999.0
18-12-2023, 00:13:37,    222,    0.9,    7.6,   0.00,   0.00, 1025.9,   83.8, -999.0
18-12-2023, 00:13:47,    189,    0.0,    7.5,   0.00,   0.00, 1025.8,   83.9, -999.0
18-12-2023, 00:13:57,    161,    0.6,    7.6,   0.00,   0.00, 1025.8,   84.2, -999.0
18-12-2023, 00:14:06,    161,    0.0,    7.5,   0.00,   0.00, 1025.7,   84.2, -999.0
18-12-2023, 00:14:17,    162,    0.1,    7.5,   0.00,   0.00, 1025.8,   84.4, -999.0
18-12-2023, 00:14:27,    168,    0.3,    7.5,   0.00,   0.00, 1025.8,   84.7, -999.0
18-12-2023, 00:14:37,    136,    3.5,    7.6,   0.00,   0.00, 1025.9,   85.4, -999.0
18-12-2023, 00:14:46,    185,    1.4,    7.6,   0.00,   0.00, 1025.8,   85.5, -999.0
18-12-2023, 00:14:57,    185,    0.4,    7.6,   0.00,   0.00, 1025.8,   85.7, -999.0
18-12-2023, 00:15:07,    177,    0.2,    7.5,   0.00,   0.00, 1025.8,   85.5, -999.0
18-12-2023, 00:15:16,    176,    0.2,    7.5,   0.00,   0.00, 1025.8,   85.3, -999.0
18-12-2023, 00:15:26,    176,    0.0,    7.5,   0.00,   0.00, 1025.7,   85.3, -999.0
18-12-2023, 00:15:37,    175,    0.0,    7.5,   0.00,   0.00, 1025.7,   85.3, -999.0
18-12-2023, 00:15:46,    177,    0.0,    7.5,   0.00,   0.00, 1025.7,   85.4, -999.0
18-12-2023, 00:15:56,    167,    0.9,    7.5,   0.00,   0.00, 1025.8,   86.0, -999.0
18-12-2023, 00:16:06,    188,    1.8,    7.6,   0.00,   0.00, 1025.9,   85.5, -999.0
18-12-2023, 00:16:16,    197,    1.4,    7.5,   0.00,   0.00, 1025.9,   85.6, -999.0
18-12-2023, 00:16:26,    196,    0.0,    7.5,   0.00,   0.00, 1025.7,   85.5, -999.0
18-12-2023, 00:16:36,    185,    0.0,    7.5,   0.00,   0.00, 1025.7,   85.9, -999.0
18-12-2023, 00:16:47,    158,    0.4,    7.5,   0.00,   0.00, 1025.8,   86.7, -999.0
18-12-2023, 00:16:56,    158,    0.0,    7.5,   0.00,   0.00, 1025.7,   86.5, -999.0
18-12-2023, 00:17:06,    158,    0.0,    7.5,   0.00,   0.00, 1025.7,   86.6, -999.0
18-12-2023, 00:17:16,    157,    0.0,    7.5,   0.00,   0.00, 1025.7,   87.0, -999.0
18-12-2023, 00:17:26,    158,    0.0,    7.5,   0.00,   0.00, 1025.7,   87.6, -999.0
18-12-2023, 00:17:36,    158,    0.0,    7.6,   0.00,   0.00, 1025.7,   87.3, -999.0
18-12-2023, 00:17:46,    157,    0.0,    7.5,   0.00,   0.00, 1025.7,   86.9, -999.0
18-12-2023, 00:17:56,    157,    0.0,    7.5,   0.00,   0.00, 1025.7,   87.0, -999.0
18-12-2023, 00:18:06,    157,    0.0,    7.5,   0.00,   0.00, 1025.7,   86.8, -999.0
18-12-2023, 00:18:16,    158,    0.0,    7.5,   0.00,   0.00, 1025.7,   86.3, -999.0
18-12-2023, 00:18:26,    158,    0.0,    7.5,   0.00,   0.00, 1025.7,   86.3, -999.0
18-12-2023, 00:18:36,    211,    0.3,    7.5,   0.00,   0.00, 1025.8,   86.7, -999.0
18-12-2023, 00:18:46,    206,    0.0,    7.5,   0.00,   0.00, 1025.7,   86.2, -999.0
18-12-2023, 00:18:56,    191,    0.0,    7.5,   0.00,   0.00, 1025.7,   85.8, -999.0
18-12-2023, 00:19:06,    175,    0.1,    7.5,   0.00,   0.00, 1025.8,   85.8, -999.0
18-12-2023, 00:19:16,    177,    0.1,    7.5,   0.00,   0.00, 1025.8,   85.8, -999.0
18-12-2023, 00:19:26,    226,    1.0,    7.5,   0.00,   0.00, 1025.8,   85.6, -999.0
18-12-2023, 00:19:36,    188,    0.4,    7.5,   0.00,   0.00, 1025.8,   85.5, -999.0
18-12-2023, 00:19:46,    188,    0.0,    7.5,   0.00,   0.00, 1025.7,   85.2, -999.0
18-12-2023, 00:19:56,    188,    0.4,    7.5,   0.00,   0.00, 1025.7,   85.6, -999.0
18-12-2023, 00:20:06,    219,    0.1,    7.5,   0.00,   0.00, 1025.8,   86.0, -999.0
18-12-2023, 00:20:16,    221,    2.8,    7.5,   0.00,   0.00, 1025.9,   86.3, -999.0
18-12-2023, 00:20:26,    211,    1.3,    7.5,   0.00,   0.00, 1025.8,   86.4, -999.0
18-12-2023, 00:20:36,    174,    0.3,    7.5,   0.00,   0.00, 1025.8,   86.3, -999.0
18-12-2023, 00:20:46,    194,    0.0,    7.5,   0.00,   0.00, 1025.7,   86.6, -999.0
18-12-2023, 00:20:56,    193,    0.0,    7.5,   0.00,   0.00, 1025.7,   86.9, -999.0
18-12-2023, 00:21:06,    193,    0.0,    7.4,   0.00,   0.00, 1025.7,   87.2, -999.0
18-12-2023, 00:21:16,    165,    0.1,    7.4,   0.00,   0.00, 1025.7,   87.6, -999.0
18-12-2023, 00:21:26,    188,    1.0,    7.5,   0.00,   0.00, 1025.8,   88.7, -999.0
18-12-2023, 00:21:36,    162,    2.5,    7.4,   0.00,   0.00, 1025.9,   88.9, -999.0
18-12-2023, 00:21:45,    203,    1.1,    7.5,   0.00,   0.00, 1025.8,   88.5, -999.0
18-12-2023, 00:21:56,    175,    1.3,    7.5,   0.00,   0.00, 1025.8,   88.6, -999.0
18-12-2023, 00:22:06,    244,    0.5,    7.5,   0.00,   0.00, 1025.8,   88.4, -999.0
18-12-2023, 00:22:16,    154,    0.3,    7.5,   0.00,   0.00, 1025.8,   88.6, -999.0
18-12-2023, 00:22:25,    171,    0.1,    7.5,   0.00,   0.00, 1025.8,   88.7, -999.0
18-12-2023, 00:22:36,    171,    0.0,    7.4,   0.00,   0.00, 1025.7,   89.0, -999.0
18-12-2023, 00:22:46,    171,    0.0,    7.4,   0.00,   0.00, 1025.7,   89.6, -999.0
18-12-2023, 00:22:55,    192,    0.9,    7.5,   0.00,   0.00, 1025.8,   89.9, -999.0
18-12-2023, 00:23:05,    181,    0.6,    7.5,   0.00,   0.00, 1025.8,   89.7, -999.0
18-12-2023, 00:23:16,    179,    0.1,    7.4,   0.00,   0.00, 1025.7,   89.2, -999.0
18-12-2023, 00:23:25,    162,    0.8,    7.4,   0.00,   0.00, 1025.8,   89.8, -999.0
18-12-2023, 00:23:35,    141,    1.7,    7.5,   0.00,   0.00, 1025.8,   90.2, -999.0
18-12-2023, 00:23:46,    173,    2.5,    7.5,   0.00,   0.00, 1025.9,   90.2, -999.0
18-12-2023, 00:23:55,    155,    1.9,    7.5,   0.00,   0.00, 1025.8,   90.5, -999.0
18-12-2023, 00:24:05,    159,    1.1,    7.5,   0.00,   0.00, 1025.8,   91.6, -999.0
18-12-2023, 00:24:15,    155,    0.7,    7.5,   0.00,   0.00, 1025.8,   92.9, -999.0
18-12-2023, 00:24:26,    172,    0.7,    7.5,   0.00,   0.00, 1025.8,   93.1, -999.0
18-12-2023, 00:24:35,    193,    1.4,    7.5,   0.00,   0.00, 1025.9,   94.3, -999.0
18-12-2023, 00:24:45,    175,    0.8,    7.5,   0.00,   0.00, 1025.8,   94.8, -999.0
18-12-2023, 00:24:55,    211,    1.2,    7.5,   0.00,   0.00, 1025.8,   94.5, -999.0
18-12-2023, 00:25:05,    177,    0.3,    7.4,   0.00,   0.00, 1025.8,   94.3, -999.0
18-12-2023, 00:25:15,    216,    3.1,    7.5,   0.00,   0.00, 1025.9,   94.5, -999.0
18-12-2023, 00:25:25,    205,    1.7,    7.5,   0.00,   0.00, 1025.8,   94.6, -999.0
18-12-2023, 00:25:35,    189,    0.2,    7.4,   0.00,   0.00, 1025.8,   95.7, -999.0
18-12-2023, 00:25:45,    193,    0.2,    7.4,   0.00,   0.00, 1025.7,   97.1, -999.0
18-12-2023, 00:25:55,    183,    0.0,    7.4,   0.00,   0.00, 1025.8,   97.7, -999.0
18-12-2023, 00:26:05,    185,    0.5,    7.4,   0.00,   0.00, 1025.8,   98.0, -999.0
18-12-2023, 00:26:15,    185,    0.0,    7.3,   0.00,   0.00, 1025.7,   98.4, -999.0
18-12-2023, 00:26:25,    175,    0.1,    7.3,   0.00,   0.00, 1025.8,   98.8, -999.0
18-12-2023, 00:26:35,    202,    1.3,    7.4,   0.00,   0.00, 1025.8,   99.0, -999.0
18-12-2023, 00:26:45,    211,    1.2,    7.5,   0.00,   0.00, 1025.8,   99.0, -999.0
18-12-2023, 00:26:55,    190,    2.3,    7.5,   0.00,   0.00, 1025.9,   99.1, -999.0
18-12-2023, 00:27:05,    178,    1.0,    7.5,   0.00,   0.00, 1025.9,   99.0, -999.0
18-12-2023, 00:27:15,    202,    2.2,    7.5,   0.00,   0.00, 1025.9,   99.0, -999.0
18-12-2023, 00:27:25,    150,    1.7,    7.4,   0.00,   0.00, 1025.9,   98.9, -999.0
18-12-2023, 00:27:35,    160,    0.3,    7.5,   0.00,   0.00, 1025.8,   98.9, -999.0
18-12-2023, 00:27:45,    196,    0.0,    7.4,   0.00,   0.00, 1025.7,   98.7, -999.0
18-12-2023, 00:27:55,    178,    0.2,    7.4,   0.00,   0.00, 1025.7,   98.8, -999.0
18-12-2023, 00:28:05,    174,    0.3,    7.5,   0.00,   0.00, 1025.8,   98.9, -999.0
18-12-2023, 00:28:15,    177,    0.0,    7.4,   0.00,   0.00, 1025.7,   98.6, -999.0
18-12-2023, 00:28:25,    177,    0.0,    7.4,   0.00,   0.00, 1025.7,   98.6, -999.0
18-12-2023, 00:28:35,    175,    0.2,    7.4,   0.00,   0.00, 1025.7,   98.8, -999.0
18-12-2023, 00:28:45,    168,    3.7,    7.5,   0.00,   0.00, 1025.9,   99.0, -999.0
18-12-2023, 00:28:55,    201,    1.3,    7.5,   0.00,   0.00, 1025.9,   99.0, -999.0
18-12-2023, 00:29:05,    201,    1.5,    7.5,   0.00,   0.00, 1025.8,   99.0, -999.0
18-12-2023, 00:29:15,    177,    1.5,    7.5,   0.00,   0.00, 1025.8,   99.0, -999.0
18-12-2023, 00:29:24,    178,    0.5,    7.4,   0.00,   0.00, 1025.8,   98.8, -999.0
18-12-2023, 00:29:35,    179,    0.0,    7.4,   0.00,   0.00, 1025.7,   98.7, -999.0
18-12-2023, 00:29:45,    179,    0.0,    7.4,   0.00,   0.00, 1025.7,   98.7, -999.0
18-12-2023, 00:29:55,    179,    0.0,    7.4,   0.00,   0.00, 1025.7,   98.6, -999.0
18-12-2023, 00:30:05,    246,    0.3,    7.4,   0.00,   0.00, 1025.8,   98.9, -999.0
18-12-2023, 00:30:15,    182,    0.1,    7.4,   0.00,   0.00, 1025.8,   98.7, -999.0
18-12-2023, 00:30:25,    170,    0.6,    7.5,   0.00,   0.00, 1025.8,   99.0, -999.0
18-12-2023, 00:30:34,    161,    0.4,    7.5,   0.00,   0.00, 1025.8,   99.0, -999.0
18-12-2023, 00:30:45,    210,    0.5,    7.4,   0.00,   0.00, 1025.8,   98.9, -999.0
18-12-2023, 00:30:55,    195,    0.6,    7.5,   0.00,   0.00, 1025.8,   98.9, -999.0
18-12-2023, 00:31:04,    201,    0.2,    7.4,   0.00,   0.00, 1025.8,   98.9, -999.0
18-12-2023, 00:31:14,    231,    0.5,    7.4,   0.00,   0.00, 1025.8,   98.9, -999.0
18-12-2023, 00:31:25,    193,    0.7,    7.5,   0.00,   0.00, 1025.9,   99.0, -999.0
18-12-2023, 00:31:34,    158,    0.6,    7.5,   0.00,   0.00, 1025.8,   99.0, -999.0
18-12-2023, 00:31:44,    223,    0.6,    7.4,   0.00,   0.00, 1025.8,   98.9, -999.0
18-12-2023, 00:31:54,    182,    1.1,    7.4,   0.00,   0.00, 1025.9,   99.0, -999.0
18-12-2023, 00:32:05,    165,    1.1,    7.4,   0.00,   0.00, 1025.9,   99.0, -999.0
18-12-2023, 00:32:14,    165,    0.1,    7.4,   0.00,   0.00, 1025.8,   98.8, -999.0
18-12-2023, 00:32:24,    166,    0.0,    7.4,   0.00,   0.00, 1025.8,   98.6, -999.0
18-12-2023, 00:32:35,    243,    1.9,    7.4,   0.00,   0.00, 1025.8,   99.0, -999.0
18-12-2023, 00:32:44,    186,    2.7,    7.4,   0.00,   0.00, 1025.9,   99.0, -999.0
18-12-2023, 00:32:54,    181,    0.8,    7.5,   0.00,   0.00, 1025.8,   99.0, -999.0
18-12-2023, 00:33:04,    181,    0.0,    7.4,   0.00,   0.00, 1025.7,   98.7, -999.0
18-12-2023, 00:33:14,    188,    1.0,    7.4,   0.00,   0.00, 1025.8,   98.9, -999.0
18-12-2023, 00:33:24,    187,    0.3,    7.4,   0.00,   0.00, 1025.8,   98.9, -999.0
18-12-2023, 00:33:34,    186,    0.2,    7.4,   0.00,   0.00, 1025.8,   98.8, -999.0
18-12-2023, 00:33:44,    180,    0.1,    7.4,   0.00,   0.00, 1025.7,   98.8, -999.0
18-12-2023, 00:33:54,    214,    0.4,    7.5,   0.00,   0.00, 1025.8,   98.9, -999.0
18-12-2023, 00:34:04,    186,    0.4,    7.4,   0.00,   0.00, 1025.8,   98.9, -999.0
18-12-2023, 00:34:14,    210,    1.5,    7.4,   0.00,   0.00, 1025.9,   99.0, -999.0
18-12-2023, 00:34:24,    209,    0.5,    7.5,   0.00,   0.00, 1025.8,   98.9, -999.0
18-12-2023, 00:34:34,    209,    0.0,    7.4,   0.00,   0.00, 1025.7,   98.6, -999.0
18-12-2023, 00:34:44,    218,    2.4,    7.4,   0.00,   0.00, 1025.9,   99.0, -999.0
18-12-2023, 00:34:54,    178,    1.6,    7.5,   0.00,   0.00, 1025.9,   99.0, -999.0
18-12-2023, 00:35:04,    177,    2.2,    7.5,   0.00,   0.00, 1025.9,   99.0, -999.0
18-12-2023, 00:35:14,    166,    2.1,    7.4,   0.00,   0.00, 1025.8,   99.0, -999.0
18-12-2023, 00:35:24,    193,    0.9,    7.5,   0.00,   0.00, 1025.8,   99.0, -999.0
18-12-2023, 00:35:34,    161,    1.1,    7.4,   0.00,   0.00, 1025.8,   99.0, -999.0
18-12-2023, 00:35:44,    161,    0.7,    7.5,   0.00,   0.00, 1025.8,   99.0, -999.0
18-12-2023, 00:35:54,    198,    1.2,    7.5,   0.00,   0.00, 1025.9,   99.0, -999.0
18-12-2023, 00:36:04,    170,    1.5,    7.4,   0.00,   0.00, 1025.8,   99.0, -999.0
18-12-2023, 00:36:14,    191,    0.9,    7.5,   0.00,   0.00, 1025.8,   99.0, -999.0
18-12-2023, 00:36:24,    190,    0.1,    7.4,   0.00,   0.00, 1025.8,   98.8, -999.0
18-12-2023, 00:36:34,    226,    0.5,    7.4,   0.00,   0.00, 1025.8,   98.9, -999.0
18-12-2023, 00:36:44,    206,    3.2,    7.4,   0.00,   0.00, 1025.8,   99.0, -999.0
18-12-2023, 00:36:54,    147,    1.9,    7.5,   0.00,   0.00, 1025.8,   99.1, -999.0
18-12-2023, 00:37:04,    193,    2.1,    7.5,   0.00,   0.00, 1025.9,   99.0, -999.0
18-12-2023, 00:37:14,    201,    1.5,    7.5,   0.00,   0.00, 1025.9,   99.0, -999.0
18-12-2023, 00:37:24,    193,    0.5,    7.5,   0.00,   0.00, 1025.9,   99.0, -999.0
18-12-2023, 00:37:34,    194,    0.3,    7.4,   0.00,   0.00, 1025.8,   98.9, -999.0
18-12-2023, 00:37:44,    197,    0.0,    7.4,   0.00,   0.00, 1025.8,   98.8, -999.0
18-12-2023, 00:37:54,    197,    0.0,    7.4,   0.00,   0.00, 1025.7,   98.6, -999.0
18-12-2023, 00:38:04,    184,    1.1,    7.4,   0.00,   0.00, 1025.9,   99.1, -999.0
18-12-2023, 00:38:14,    181,    0.8,    7.5,   0.00,   0.00, 1025.9,   99.0, -999.0
18-12-2023, 00:38:24,    181,    0.5,    7.5,   0.00,   0.00, 1025.8,   99.0, -999.0
18-12-2023, 00:38:34,    220,    0.1,    7.4,   0.00,   0.00, 1025.8,   98.9, -999.0
18-12-2023, 00:38:43,    208,    0.6,    7.4,   0.00,   0.00, 1025.8,   99.0, -999.0
18-12-2023, 00:38:54,    209,    1.6,    7.4,   0.00,   0.00, 1025.8,   99.0, -999.0
18-12-2023, 00:39:04,    202,    2.6,    7.5,   0.00,   0.00, 1025.8,   99.1, -999.0
18-12-2023, 00:39:13,    173,    0.4,    7.4,   0.00,   0.00, 1025.8,   98.9, -999.0
18-12-2023, 00:39:23,    173,    0.0,    7.3,   0.00,   0.00, 1025.7,   98.7, -999.0
18-12-2023, 00:39:34,    207,    0.0,    7.3,   0.00,   0.00, 1025.7,   98.7, -999.0
18-12-2023, 00:39:44,    204,    0.3,    7.4,   0.00,   0.00, 1025.7,   98.7, -999.0
18-12-2023, 00:39:53,    201,    0.8,    7.5,   0.00,   0.00, 1025.8,   99.0, -999.0
18-12-2023, 00:40:03,    256,    1.4,    7.4,   0.00,   0.00, 1025.8,   99.0, -999.0
18-12-2023, 00:40:14,    173,    0.3,    7.4,   0.00,   0.00, 1025.8,   98.9, -999.0
18-12-2023, 00:40:23,    188,    0.0,    7.4,   0.00,   0.00, 1025.7,   98.7, -999.0
18-12-2023, 00:40:33,    218,    1.7,    7.4,   0.00,   0.00, 1025.8,   99.0, -999.0
18-12-2023, 00:40:43,    218,    1.0,    7.5,   0.00,   0.00, 1025.8,   98.9, -999.0
18-12-2023, 00:40:53,    242,    1.7,    7.5,   0.00,   0.00, 1025.8,   99.0, -999.0
18-12-2023, 00:41:03,    218,    3.0,    7.5,   0.00,   0.00, 1025.8,   99.0, -999.0
18-12-2023, 00:41:13,    221,    1.2,    7.5,   0.00,   0.00, 1025.8,   98.9, -999.0
18-12-2023, 00:41:23,    175,    0.3,    7.4,   0.00,   0.00, 1025.7,   99.0, -999.0
18-12-2023, 00:41:33,    176,    0.0,    7.4,   0.00,   0.00, 1025.7,   98.6, -999.0
18-12-2023, 00:41:43,    185,    0.0,    7.3,   0.00,   0.00, 1025.7,   98.7, -999.0
18-12-2023, 00:41:53,    188,    0.3,    7.4,   0.00,   0.00, 1025.8,   98.9, -999.0
18-12-2023, 00:42:03,    175,    0.1,    7.4,   0.00,   0.00, 1025.7,   98.7, -999.0
18-12-2023, 00:42:13,    177,    0.0,    7.4,   0.00,   0.00, 1025.6,   98.6, -999.0
18-12-2023, 00:42:23,    180,    0.0,    7.4,   0.00,   0.00, 1025.7,   98.7, -999.0
18-12-2023, 00:42:33,    180,    0.0,    7.4,   0.00,   0.00, 1025.7,   98.7, -999.0
18-12-2023, 00:42:43,    175,    2.7,    7.5,   0.00,   0.00, 1025.7,   99.0, -999.0
18-12-2023, 00:42:53,    212,    1.2,    7.5,   0.00,   0.00, 1025.7,   99.1, -999.0
18-12-2023, 00:43:03,    175,    0.3,    7.5,   0.00,   0.00, 1025.7,   99.1, -999.0
18-12-2023, 00:43:13,    130,    0.3,    7.5,   0.00,   0.00, 1025.7,   98.9, -999.0
18-12-2023, 00:43:23,    130,    0.0,    7.4,   0.00,   0.00, 1025.6,   98.7, -999.0
18-12-2023, 00:43:33,    139,    0.0,    7.4,   0.00,   0.00, 1025.6,   98.7, -999.0
18-12-2023, 00:43:43,    139,    0.0,    7.4,   0.00,   0.00, 1025.6,   98.6, -999.0
18-12-2023, 00:43:53,    201,    0.1,    7.4,   0.00,   0.00, 1025.7,   98.9, -999.0
18-12-2023, 00:44:03,    191,    0.7,    7.5,   0.00,   0.00, 1025.8,   99.0, -999.0
18-12-2023, 00:44:13,    149,    0.8,    7.4,   0.00,   0.00, 1025.7,   99.0, -999.0
18-12-2023, 00:44:23,    209,    0.4,    7.4,   0.00,   0.00, 1025.7,   98.9, -999.0
18-12-2023, 00:44:33,    210,    0.0,    7.4,   0.00,   0.00, 1025.6,   98.7, -999.0
18-12-2023, 00:44:43,    174,    2.8,    7.4,   0.00,   0.00, 1025.7,   99.0, -999.0
18-12-2023, 00:44:53,    189,    2.0,    7.5,   0.00,   0.00, 1025.7,   99.0, -999.0
18-12-2023, 00:45:03,    207,    2.0,    7.5,   0.00,   0.00, 1025.7,   99.0, -999.0
18-12-2023, 00:45:13,    153,    2.1,    7.6,   0.00,   0.00, 1025.7,   99.0, -999.0
18-12-2023, 00:45:23,    196,    1.0,    7.5,   0.00,   0.00, 1025.7,   99.0, -999.0
18-12-2023, 00:45:33,    158,    3.0,    7.5,   0.00,   0.00, 1025.7,   99.0, -999.0
18-12-2023, 00:45:43,    262,    0.4,    7.5,   0.00,   0.00, 1025.6,   98.9, -999.0
18-12-2023, 00:45:52,    169,    1.4,    7.6,   0.00,   0.00, 1025.7,   99.0, -999.0
18-12-2023, 00:46:03,    146,    1.7,    7.6,   0.00,   0.00, 1025.7,   99.0, -999.0
18-12-2023, 00:46:13,    149,    0.2,    7.5,   0.00,   0.00, 1025.6,   98.8, -999.0
18-12-2023, 00:46:22,    157,    0.0,    7.4,   0.00,   0.00, 1025.6,   98.8, -999.0
18-12-2023, 00:46:33,    171,    0.0,    7.5,   0.00,   0.00, 1025.6,   98.8, -999.0
18-12-2023, 00:46:43,    183,    0.4,    7.5,   0.00,   0.00, 1025.7,   98.9, -999.0
18-12-2023, 00:46:53,    182,    0.0,    7.5,   0.00,   0.00, 1025.6,   98.7, -999.0